Tracking 19490 objects as of 24-Jan-2019
HD Live streaming from Space Station
objects crossing your sky now

FENGYUN 1C DEB

Track FENGYUN 1C DEB now!
10-day predictions


NORAD ID: 30492
Int'l Code: 1999-025AHE
Perigee: 741.8 km
Apogee: 1,004.3 km
Inclination: 102.3 °
Period: 102.3 minutes
Semi major axis: 7244 km
RCS: 0.0164 m2 (small)
Launch date: May 10, 1999
Source: People's Republic of China (PRC)
Launch site: Taiyaun Space Center, China (TSC)

Note: This is SATELLITE DEBRIS
aabbcc
Your satellite tracking list
Your tracking list is empty




NASA's NSSDC Master Catalog

Two Line Element Set (TLE):
1 30492U 99025AHE 19024.23193660  .00001429  00000-0  75953-3 0  9997
2 30492 102.3436 116.7590 0181160 245.9340 139.6562 14.08089755612459
Source of the keplerian elements: AFSPC